METEOSAT-11 (MSG-4) (40732 NORAD) Tracking and Keplerian Element Data

This shows tracking and keplerian element data for the satellite.

Feedback or suggestion? Click here.




ElementValue
Catalog40732
NameMETEOSAT-11 (MSG-4)
Epoch Orbit3260
Epoch Day160.06830618
Epoch Year2024
RAAN68.8871
Inclination1.3646
Eccentricity0.0001632
Argument of Perigee153.6214
Mean Anonmoly68.3545
Mean Motion1.00276209
Decay Rate6.2E-07
L11 40732U 15034A 24160.06830618 .00000062 00000+0 00000+0 0 9990
L22 40732 1.3646 68.8871 0001632 153.6214 68.3545 1.00276209 32609



Live tracking and technical data element details for METEOSAT-11 (MSG-4) (NORAD 40732). METEOSAT-11 (MSG-4) can be tracked NOW for your location showing map with azimuth and elevation plus other details from your city location.







IsCatalogInMostPopularTable: catalog: 40732, numindb: 649
Update: records affected: 1



GetName: 40732 METEOSAT-11 (MSG-4)

Hit Count: updated at: Mon, 17 Jun 2024 23:34:00 GMT